Regional Weather Roundup
Issued by NWS Charleston, SC

Current Version | Previous Version | Text Only | Print | Product List | Glossary Off
Versions: 1 2 3 4 5 6 7 8 9 10 11 12 13 14 15 16 17 18 19 20 21 22 23 24 25 26 27 28 29 30 31 32 33 34 35 36 37 38 39 40 41 42 43 44 45 46 47 48 49 50

000
ASUS42 KCHS 161327
RWRCHS

REGIONAL WEATHER ROUNDUP
NATIONAL WEATHER SERVICE CHARLESTON SC
800 AM EST MON JAN 16 2017

NOTE: "FAIR" INDICATES FEW OR NO CLOUDS BELOW 12,000 FEET WITH NO
SIGNIFICANT WEATHER AND/OR OBSTRUCTIONS TO VISIBILITY.

NOT ALL STATIONS ARE QUALITY CONTROLLED. USE DATA WITH CAUTION...
ESPECIALLY DEWPOINT OBSERVATIONS.

SCZ027-030-031-034>040-042>050-161400-
...SOUTHEAST SOUTH CAROLINA...

CITY           SKY/WX    TMP DP  RH WIND       PRES   REMARKS
N CHARLESTON   FOG       56  55  97 NE5       30.33S VSB 1/4
WATERFRONT PRK   N/A     56  56 100 N7        30.32R
MOUNT PLEASANT LGT RAIN  57  57 100 CALM      30.35R VSB 1/2
JOHNS ISLAND   FOG       57  57 100 N5        30.34R VSB<1/4
PINOPOLIS      NOT AVBL
MONCKS CORNER  LGT RAIN  55  54  94 E3        30.35R VSB 1/4
SUMMERVILLE    FOG      N/A N/A N/A CALM      30.35R VSB 1/2
BEAUFORT MCAS  CLOUDY    55  54  96 NE5       30.32R FOG
BEAUFORT ARPT  PTSUNNY   54  54 100 NE6       30.32S
HILTON HEAD IS MOCLDY    55  55 100 N6        30.32R HAZE
WALTERBORO     FOG       55 N/A N/A CALM      30.34S VSB 1/4
ALLENDALE      CLOUDY    54  54 100 NE5       30.32R FOG

...SOUTHERN MIDLANDS AND PEE DEE...

CITY           SKY/WX    TMP DP  RH WIND       PRES   REMARKS
GEORGETOWN     FOG       52  50  93 CALM      30.37R VSB 1/2
KINGSTREE      FOG       52  52 100 NE3       30.37R VSB 1/4
ORANGEBURG     FOG       53  53 100 NE6       30.34R VSB 1/4
BARNWELL       FOG       54  54 100 CALM      30.33R VSB 3/4
AIKEN          FOG       46  46 100 NE3       30.37R VSB<1/4
MANNING        FOG       54  52  94 CALM      30.36R VSB 3/4
COLUMBIA       FOG       56  54  93 E5        30.34R VSB 1/2
SUMTER         CLOUDY    54  54 100 NE7       30.34R FOG
FLORENCE       FOG       50  50 100 NE7       30.38R VSB 1/4
MYRTLE BEACH   FOG       54  48  82 NE8       30.38R VSB 1/2
N MYRTLE BEACH CLOUDY    50  49  96 NE7       30.36R

$$

GAZ063-065-086>088-099>101-113>116-118-119-134>141-150-161400-
...SOUTHEAST GEORGIA...

CITY           SKY/WX    TMP DP  RH WIND       PRES   REMARKS
SAVANNAH ARPT  MOCLDY    54  52  93 N3        30.31S
HUNTER AAF     MOCLDY    55  55 100 CALM      30.28S
FORT STEWART   MOCLDY    53  52  95 CALM      30.28R
STATESBORO     CLOUDY    53  53 100 CALM      30.32R
SYLVANIA       FOG      N/A N/A N/A CALM      30.32R VSB 1
CLAXTON        FAIR     N/A N/A N/A CALM      30.32R

...CSRA...CENTRAL AND FAR SOUTHEAST GEORGIA...

CITY           SKY/WX    TMP DP  RH WIND       PRES   REMARKS
THOMSON        MOCLDY    48  48 100 CALM      30.36R
AUGUSTA-BUSH   MOCLDY    48  46  93 CALM      30.32R FOG
AUGUSTA-DANIEL MOCLDY    54  50  86 CALM      30.32R FOG
SWAINSBORO     PTSUNNY   54  54 100 MISG      30.32R
VIDALIA        FOG       54  54 100 CALM      30.31R VSB 1/2
EASTMAN        CLOUDY    56  56 100 CALM      30.32R
HAZLEHURST     FAIR      56  56 100 CALM      30.29R
ALMA           FOG       50  50 100 CALM      30.29S VSB 1/2
WAYCROSS       PTCLDY    54  54 100 CALM      30.30R
JESUP          CLOUDY    55  54  94 CALM      30.31R FOG
BAXLEY         FAIR      54  54 100 CALM      30.30R
BRUNSWICK      PTCLDY    55  55 100 E3        30.31R
SAINT SIMONS   PTCLDY    56  54  93 CALM      30.29R

$$

SCZ027-028-034-036>038-045-046-048>050-GAZ119-141-161400-
...LAKE AND SUPPLEMENTAL COASTAL OBSERVATIONS...

STATION/POSITION TIME  TEMP    WIND        PRES    WAVE   SWELL
                       AIR SEA DIR/SP/G            HT/PER HT/PER/DIR
                 (UTC) (F)     (DEG/KT/KT) (MB)    (FT/S) (FT/S/D)
WINYAH BAY       1245   52      50/  8     1027.0S
LAKE MURRAY      1220   55      60/  1/  4 1026.8
ACE BASIN NERRS  1245   53     350/  2     1027.0R
FORT PULASKI     1300   56 54   90/  7/  9 1026.5
SAPELO ISLAND    1300   59        CALM     1026.0

$$

ANZ835-935-AMZ111-154-330-350-352-354-370-450-454-472-161400-
...C-MAN AND BUOY OBSERVATIONS...

STATION/POSITION TIME  TEMP    WIND        PRES    WAVE   SWELL
                       AIR SEA DIR/SP/G            HT/PER HT/PER/DIR
                 (UTC) (F)     (DEG/KT/KT) (MB)    (FT/S) (FT/S/D)
BUOY 41004       1250   70 71   50/  8/ 10 1025.6R   3/ 8   3/140/ 8
BUOY 41008       1250   64 60  320/  6/  6 1025.3F   3/10   2/100/10
FOLLY BEACH CMAN 1300   55      20/  9/ 11 1027.5R
CAPERS NEARSHORE 1208   54 54   40/ 12/ 16 1026.6R
FRIPP NEARSHORE  1308   56 56   40/  8/ 10 1026.4R


STATION/POSITION TIME  TEMP    WIND        PRES    WAVE   SWELL
                       AIR SEA DIR/SP/G            HT/PER HT/PER/DIR
                 (UTC) (F)     (DEG/KT/KT) (MB)    (FT/S) (FT/S/D)
5E ST. MARYS GA  1300      61                N/A     3/11   2/100/11
FRYING PAN BUOY  1310   63 71   40/ 14/ 17 1027.3
BUOY 41025       1250   57 74   20/ 17/ 21 1028.8R   5/ 6   2/ 60/ 9
CAPE LOOKOUT NC  1300   48      20/ 13/ 16 1028.8R
BUOY 41002       1250   69 71   90/  4/  4 1027.0R   4/ 7   3/ 20/ 7
BUOY 41010       NOT AVBL
ST AUGUSTINE FL  1300   65 64   60/  1/  2 1025.7R


$$




USA.gov is the U.S. government's official web portal to all federal, state and local government web resources and services.